Station Historical Data
Daily Summary for February 5, 2017 Units:  Metric    English   Both
« Previous Day
Next Day »
Daily Weekly Monthly Yearly Custom
  High: Low: Average:
Temperature: 0.8 °C -3.8 °C -1.1 °C
Dew Point: -2.3 °C -11.7 °C -6.2 °C
Humidity: 90% 49% 69%
Wind Speed: 25.7km/h 1.6km/h 10.8km/h
Wind Gust: 43.5km/h - -
Wind- - WSW
Pressure: 1019.2 hPa 1009.4 hPa -
Precipitation: 0 mm    
Historical Graphs
 
 
Tabular Data for February 5, 2017
Time Temperature Dew Point Pressure Wind Wind Speed Wind Gust Humidity Rainfall Rate (Hourly)
00:04 -3.7 °C -10.9 °C 1019.2 hPa SSW 1.6 km/h 6.4 km/h 57% 0 mm
00:09 -3.7 °C -10.9 °C 1019.2 hPa SSW 3.2 km/h 6.4 km/h 57% 0 mm
00:14 -3.7 °C -10.9 °C 1018.8 hPa SSW 3.2 km/h 6.4 km/h 57% 0 mm
00:19 -3.6 °C -10.9 °C 1018.8 hPa SSW 3.2 km/h 8 km/h 57% 0 mm
00:24 -3.6 °C -10.8 °C 1018.8 hPa SSW 3.2 km/h 8 km/h 57% 0 mm
00:29 -3.4 °C -10.7 °C 1018.8 hPa SSW 3.2 km/h 9.7 km/h 57% 0 mm
00:34 -3.3 °C -10.9 °C 1018.5 hPa SSW 3.2 km/h 8 km/h 56% 0 mm
00:39 -3.3 °C -10.7 °C 1018.5 hPa SSW 3.2 km/h 8 km/h 57% 0 mm
00:44 -3.4 °C -10.7 °C 1018.2 hPa SSW 3.2 km/h 9.7 km/h 57% 0 mm
00:49 -3.4 °C -10.8 °C 1018.2 hPa SSW 3.2 km/h 9.7 km/h 57% 0 mm
00:54 -3.6 °C -10.6 °C 1017.8 hPa South 3.2 km/h 6.4 km/h 58% 0 mm
00:59 -3.6 °C -10.7 °C 1017.8 hPa South 1.6 km/h 4.8 km/h 58% 0 mm
01:05 -3.7 °C -10.8 °C 1017.8 hPa South 1.6 km/h 4.8 km/h 58% 0 mm
01:10 -3.8 °C -10.7 °C 1017.5 hPa South 3.2 km/h 4.8 km/h 59% 0 mm
01:15 -3.7 °C -10.8 °C 1017.2 hPa South 3.2 km/h 8 km/h 58% 0 mm
01:20 -3.7 °C -10.5 °C 1017.2 hPa South 4.8 km/h 8 km/h 59% 0 mm
01:25 -3.6 °C -10.8 °C 1017.2 hPa SSE 4.8 km/h 11.3 km/h 57% 0 mm
01:30 -3.5 °C -10.8 °C 1016.8 hPa South 4.8 km/h 8 km/h 57% 0 mm
01:35 -3.5 °C -11 °C 1016.8 hPa SSE 6.4 km/h 8 km/h 56% 0 mm
01:40 -3.4 °C -11.2 °C 1016.8 hPa South 6.4 km/h 12.9 km/h 55% 0 mm
01:45 -3.4 °C -11 °C 1016.8 hPa South 6.4 km/h 12.9 km/h 56% 0 mm
01:50 -3.3 °C -11.1 °C 1016.5 hPa SSW 6.4 km/h 12.9 km/h 55% 0 mm
01:55 -3.3 °C -11.1 °C 1016.5 hPa SSW 3.2 km/h 11.3 km/h 55% 0 mm
02:00 -3.3 °C -11.1 °C 1016.5 hPa SSW 3.2 km/h 8 km/h 55% 0 mm
02:05 -3.4 °C -11 °C 1016.5 hPa SSW 3.2 km/h 6.4 km/h 56% 0 mm
02:10 -3.5 °C -11 °C 1016.1 hPa SSW 4.8 km/h 9.7 km/h 56% 0 mm
02:15 -3.4 °C -11.2 °C 1016.1 hPa SSW 4.8 km/h 9.7 km/h 55% 0 mm
02:20 -3.4 °C -11.2 °C 1016.1 hPa SW 8 km/h 11.3 km/h 55% 0 mm
02:30 -3.4 °C -11.2 °C 1016.1 hPa SSW 4.8 km/h 12.9 km/h 55% 0 mm
02:35 -3.4 °C -10.9 °C 1015.8 hPa South 3.2 km/h 9.7 km/h 56% 0 mm
02:40 -3.3 °C -11.1 °C 1015.8 hPa SSW 3.2 km/h 12.9 km/h 55% 0 mm
02:45 -3.3 °C -11.1 °C 1015.8 hPa South 6.4 km/h 12.9 km/h 55% 0 mm
02:50 -3.2 °C -11.2 °C 1015.8 hPa South 6.4 km/h 14.5 km/h 54% 0 mm
02:55 -3.1 °C -11.1 °C 1015.8 hPa SSW 4.8 km/h 11.3 km/h 54% 0 mm
03:00 -3.1 °C -11.3 °C 1015.5 hPa SSW 4.8 km/h 12.9 km/h 53% 0 mm
03:05 -3.1 °C -11.1 °C 1015.5 hPa South 6.4 km/h 11.3 km/h 54% 0 mm
03:10 -3 °C -11.3 °C 1015.1 hPa South 11.3 km/h 14.5 km/h 53% 0 mm
03:15 -2.9 °C -11.2 °C 1015.1 hPa SSW 8 km/h 16.1 km/h 53% 0 mm
03:20 -2.8 °C -11.3 °C 1015.1 hPa SSW 6.4 km/h 16.1 km/h 52% 0 mm
03:25 -2.8 °C -11.3 °C 1015.1 hPa South 4.8 km/h 14.5 km/h 52% 0 mm
03:30 -2.7 °C -11.4 °C 1015.1 hPa SSW 6.4 km/h 14.5 km/h 51% 0 mm
03:35 -2.6 °C -11.4 °C 1014.8 hPa SSW 6.4 km/h 11.3 km/h 51% 0 mm
03:40 -2.6 °C -11.6 °C 1014.8 hPa SW 9.7 km/h 16.1 km/h 50% 0 mm
03:45 -2.4 °C -11.7 °C 1014.8 hPa SW 11.3 km/h 16.1 km/h 49% 0 mm
03:50 -2.4 °C -11.7 °C 1014.4 hPa SW 8 km/h 17.7 km/h 49% 0 mm
03:55 -2.3 °C -11.6 °C 1014.4 hPa SW 8 km/h 17.7 km/h 49% 0 mm
04:00 -2.4 °C -11.7 °C 1014.4 hPa SW 9.7 km/h 19.3 km/h 49% 0 mm
04:04 -2.6 °C -11.6 °C 1014.4 hPa SW 3.2 km/h 17.7 km/h 50% 0 mm
04:10 -2.6 °C -11.6 °C 1014.4 hPa SSW 6.4 km/h 16.1 km/h 50% 0 mm
04:15 -2.7 °C -11.5 °C 1014.4 hPa West 8 km/h 11.3 km/h 51% 0 mm
04:20 -2.8 °C -11.3 °C 1014.1 hPa South 4.8 km/h 14.5 km/h 52% 0 mm
04:25 -2.8 °C -11.3 °C 1014.1 hPa SW 6.4 km/h 14.5 km/h 52% 0 mm
04:30 -2.8 °C -11.3 °C 1014.1 hPa SSW 6.4 km/h 12.9 km/h 52% 0 mm
04:35 -2.8 °C -11.1 °C 1013.8 hPa SSW 9.7 km/h 12.9 km/h 53% 0 mm
04:40 -2.8 °C -11.1 °C 1013.8 hPa SW 12.9 km/h 12.9 km/h 53% 0 mm
04:45 -2.9 °C -11.2 °C 1013.8 hPa SW 3.2 km/h 11.3 km/h 53% 0 mm
04:50 -3 °C -11 °C 1013.8 hPa SW 4.8 km/h 12.9 km/h 54% 0 mm
04:55 -3 °C -11 °C 1013.4 hPa SSW 4.8 km/h 14.5 km/h 54% 0 mm
05:00 -3 °C -11 °C 1013.4 hPa SSW 6.4 km/h 14.5 km/h 54% 0 mm
05:05 -2.9 °C -10.9 °C 1013.4 hPa SSW 6.4 km/h 16.1 km/h 54% 0 mm
05:10 -2.9 °C -10.7 °C 1013.4 hPa SW 6.4 km/h 16.1 km/h 55% 0 mm
05:14 -2.9 °C -10.9 °C 1013.4 hPa SSW 4.8 km/h 12.9 km/h 54% 0 mm
05:19 -2.8 °C -10.6 °C 1013.4 hPa SSW 6.4 km/h 14.5 km/h 55% 0 mm
05:24 -2.7 °C -10.8 °C 1013.4 hPa SSW 6.4 km/h 14.5 km/h 54% 0 mm
05:30 -2.8 °C -10.8 °C 1013.4 hPa SSW 6.4 km/h 12.9 km/h 54% 0 mm
05:35 -2.7 °C -11 °C 1013.1 hPa SSW 6.4 km/h 12.9 km/h 53% 0 mm
05:40 -2.7 °C -10.7 °C 1013.1 hPa SSW 6.4 km/h 12.9 km/h 54% 0 mm
05:45 -2.7 °C -10.9 °C 1013.1 hPa SW 6.4 km/h 12.9 km/h 53% 0 mm
05:50 -2.6 °C -10.9 °C 1012.8 hPa SSE 9.7 km/h 17.7 km/h 53% 0 mm
05:55 -2.6 °C -10.6 °C 1012.8 hPa SSW 8 km/h 11.3 km/h 54% 0 mm
05:59 -2.6 °C -10.8 °C 1012.8 hPa SSW 6.4 km/h 11.3 km/h 53% 0 mm
06:05 -2.6 °C -10.8 °C 1012.8 hPa SSW 6.4 km/h 12.9 km/h 53% 0 mm
06:10 -2.6 °C -10.6 °C 1012.8 hPa SSW 6.4 km/h 14.5 km/h 54% 0 mm
06:14 -2.5 °C -10.8 °C 1012.4 hPa SSW 4.8 km/h 17.7 km/h 53% 0 mm
06:19 -2.5 °C -10.6 °C 1012.4 hPa SSW 9.7 km/h 12.9 km/h 54% 0 mm
06:24 -2.5 °C -10.6 °C 1012.4 hPa SSE 6.4 km/h 12.9 km/h 54% 0 mm
06:29 -2.4 °C -10.5 °C 1012.4 hPa SSW 6.4 km/h 12.9 km/h 54% 0 mm
06:34 -2.4 °C -10.4 °C 1012.1 hPa SSW 6.4 km/h 14.5 km/h 54% 0 mm
06:40 -2.3 °C -10.4 °C 1012.4 hPa SSW 6.4 km/h 14.5 km/h 54% 0 mm
06:45 -2.3 °C -10.3 °C 1012.1 hPa SSW 6.4 km/h 11.3 km/h 54% 0 mm
06:50 -2.2 °C -10.3 °C 1012.1 hPa SSW 4.8 km/h 12.9 km/h 54% 0 mm
06:55 -2.2 °C -10.2 °C 1012.1 hPa SSW 3.2 km/h 14.5 km/h 54% 0 mm
07:00 -2.2 °C -10 °C 1012.1 hPa WSW 6.4 km/h 12.9 km/h 55% 0 mm
07:04 -2.1 °C -9.9 °C 1012.1 hPa SSW 4.8 km/h 12.9 km/h 55% 0 mm
07:09 -2.1 °C -9.9 °C 1011.7 hPa SSE 8 km/h 20.9 km/h 55% 0 mm
07:14 -1.8 °C -9.7 °C 1011.7 hPa WSW 8 km/h 14.5 km/h 55% 0 mm
07:19 -1.7 °C -9.3 °C 1011.7 hPa SSW 11.3 km/h 22.5 km/h 56% 0 mm
07:24 -1.4 °C -9.3 °C 1011.7 hPa South 12.9 km/h 19.3 km/h 55% 0 mm
07:30 -1.2 °C -8.4 °C 1011.4 hPa South 8 km/h 29 km/h 58% 0 mm
07:34 -1 °C -7.8 °C 1011.4 hPa SW 11.3 km/h 29 km/h 60% 0 mm
07:39 -0.8 °C -7.6 °C 1011.4 hPa SW 9.7 km/h 24.1 km/h 60% 0 mm
07:45 -0.7 °C -7.3 °C 1011.4 hPa WSW 12.9 km/h 35.4 km/h 61% 0 mm
07:50 -0.7 °C -6.3 °C 1011.4 hPa WSW 17.7 km/h 35.4 km/h 66% 0 mm
07:55 -0.8 °C -6 °C 1011.7 hPa WSW 17.7 km/h 35.4 km/h 68% 0 mm
08:00 -1.1 °C -5.7 °C 1011.7 hPa WSW 14.5 km/h 35.4 km/h 71% 0 mm
08:05 -1.2 °C -5.3 °C 1011.4 hPa SW 9.7 km/h 33.8 km/h 74% 0 mm
08:09 -1.3 °C -5.2 °C 1011.1 hPa SW 12.9 km/h 22.5 km/h 75% 0 mm
08:14 -1.3 °C -5.3 °C 1011.1 hPa SW 12.9 km/h 19.3 km/h 74% 0 mm
08:19 -1.1 °C -5.5 °C 1011.1 hPa WSW 6.4 km/h 12.9 km/h 72% 0 mm
08:24 -0.8 °C -5.6 °C 1011.1 hPa SW 9.7 km/h 17.7 km/h 70% 0 mm
08:30 -0.5 °C -5.7 °C 1011.1 hPa SW 9.7 km/h 17.7 km/h 68% 0 mm
08:35 -0.2 °C -5.6 °C 1011.1 hPa WSW 9.7 km/h 22.5 km/h 67% 0 mm
08:39 -0.1 °C -5.8 °C 1011.1 hPa WSW 11.3 km/h 30.6 km/h 65% 0 mm
08:44 0.1 °C -5.7 °C 1011.1 hPa WSW 12.9 km/h 30.6 km/h 65% 0 mm
08:50 0.1 °C -5.7 °C 1011.1 hPa WSW 14.5 km/h 35.4 km/h 65% 0 mm
08:55 0 °C -6.4 °C 1011.1 hPa WSW 17.7 km/h 35.4 km/h 62% 0 mm
09:00 -0.2 °C -6.6 °C 1011.1 hPa South 14.5 km/h 33.8 km/h 62% 0 mm
09:05 -0.3 °C -6.3 °C 1011.1 hPa WSW 24.1 km/h 43.5 km/h 64% 0 mm
09:09 -0.4 °C -6.2 °C 1011.4 hPa SW 16.1 km/h 43.5 km/h 65% 0 mm
09:14 -0.6 °C -5.3 °C 1011.1 hPa SW 19.3 km/h 35.4 km/h 70% 0 mm
09:19 -0.7 °C -4.8 °C 1011.1 hPa SW 17.7 km/h 35.4 km/h 74% 0 mm
09:25 -0.9 °C -4.7 °C 1011.1 hPa SW 14.5 km/h 27.4 km/h 76% 0 mm
09:29 -1.2 °C -4.7 °C 1011.1 hPa SSW 16.1 km/h 27.4 km/h 77% 0 mm
09:34 -1.2 °C -4.5 °C 1011.1 hPa WSW 11.3 km/h 27.4 km/h 78% 0 mm
09:39 -1.2 °C -4.4 °C 1011.1 hPa West 9.7 km/h 20.9 km/h 79% 0 mm
09:44 -1.2 °C -4.1 °C 1011.1 hPa SW 11.3 km/h 20.9 km/h 81% 0 mm
09:49 -1.2 °C -3.7 °C 1011.1 hPa SW 11.3 km/h 22.5 km/h 83% 0 mm
09:54 -1.1 °C -3.3 °C 1011.1 hPa WSW 12.9 km/h 29 km/h 85% 0 mm
10:00 -1.1 °C -3.3 °C 1011.1 hPa SW 12.9 km/h 25.7 km/h 85% 0 mm
10:05 -1.1 °C -3.3 °C 1011.1 hPa WSW 14.5 km/h 25.7 km/h 85% 0 mm
10:10 -1.3 °C -3.4 °C 1011.4 hPa South 6.4 km/h 30.6 km/h 86% 0 mm
10:15 -1.6 °C -3.5 °C 1011.4 hPa SW 14.5 km/h 33.8 km/h 87% 0 mm
10:19 -1.7 °C -3.4 °C 1011.1 hPa SW 16.1 km/h 33.8 km/h 88% 0 mm
10:24 -1.7 °C -3.4 °C 1011.1 hPa West 14.5 km/h 25.7 km/h 88% 0 mm
10:29 -1.5 °C -3.1 °C 1011.1 hPa WSW 16.1 km/h 27.4 km/h 89% 0 mm
10:34 -1.4 °C -2.9 °C 1011.1 hPa WSW 14.5 km/h 27.4 km/h 89% 0 mm
10:39 -1.4 °C -2.9 °C 1011.1 hPa SW 14.5 km/h 24.1 km/h 89% 0 mm
10:44 -1.4 °C -3 °C 1011.1 hPa WSW 9.7 km/h 17.7 km/h 89% 0 mm
10:49 -1.4 °C -2.9 °C 1010.7 hPa WSW 11.3 km/h 24.1 km/h 89% 0 mm
10:54 -1.3 °C -2.9 °C 1011.1 hPa WSW 12.9 km/h 24.1 km/h 89% 0 mm
10:59 -1.3 °C -2.8 °C 1010.7 hPa SW 12.9 km/h 29 km/h 89% 0 mm
11:04 -1.2 °C -2.7 °C 1010.7 hPa SW 14.5 km/h 32.2 km/h 90% 0 mm
11:10 -1.3 °C -2.8 °C 1010.7 hPa WSW 4.8 km/h 25.7 km/h 89% 0 mm
11:15 -1.6 °C -3.1 °C 1010.7 hPa SSW 9.7 km/h 24.1 km/h 89% 0 mm
11:20 -1.7 °C -3.2 °C 1010.7 hPa SW 8 km/h 20.9 km/h 89% 0 mm
11:24 -1.7 °C -3.3 °C 1010.7 hPa SW 11.3 km/h 30.6 km/h 89% 0 mm
11:29 -1.8 °C -3.3 °C 1010.7 hPa SW 12.9 km/h 33.8 km/h 89% 0 mm
11:34 -1.8 °C -3.3 °C 1010.7 hPa SW 14.5 km/h 33.8 km/h 89% 0 mm
11:39 -1.7 °C -3.2 °C 1010.7 hPa WSW 12.9 km/h 27.4 km/h 89% 0 mm
11:44 -1.6 °C -3.2 °C 1010.7 hPa SW 17.7 km/h 27.4 km/h 89% 0 mm
11:49 -1.6 °C -3.1 °C 1010.7 hPa West 20.9 km/h 27.4 km/h 89% 0 mm
11:54 -1.4 °C -3.1 °C 1010.7 hPa WSW 16.1 km/h 27.4 km/h 88% 0 mm
11:59 -1.1 °C -2.8 °C 1010.7 hPa WSW 14.5 km/h 25.7 km/h 88% 0 mm
12:04 -0.7 °C -2.4 °C 1010.7 hPa SW 14.5 km/h 33.8 km/h 88% 0 mm
12:09 -0.4 °C -2.3 °C 1010.7 hPa West 14.5 km/h 38.6 km/h 87% 0 mm
12:14 -0.3 °C -2.5 °C 1010.7 hPa West 14.5 km/h 40.2 km/h 85% 0 mm
12:20 -0.2 °C -2.4 °C 1010.4 hPa SSW 12.9 km/h 29 km/h 85% 0 mm
12:25 -0.2 °C -2.6 °C 1010.4 hPa West 24.1 km/h 29 km/h 84% 0 mm
12:29 -0.2 °C -2.6 °C 1010.7 hPa WSW 16.1 km/h 32.2 km/h 84% 0 mm
12:34 -0.2 °C -2.6 °C 1010.4 hPa SW 11.3 km/h 30.6 km/h 84% 0 mm
12:39 -0.2 °C -2.6 °C 1010.4 hPa WSW 11.3 km/h 27.4 km/h 84% 0 mm
12:44 -0.2 °C -2.6 °C 1010 hPa WSW 14.5 km/h 33.8 km/h 84% 0 mm
12:49 -0.1 °C -2.5 °C 1010 hPa West 9.7 km/h 25.7 km/h 84% 0 mm
12:54 -0.2 °C -2.6 °C 1010 hPa WSW 11.3 km/h 30.6 km/h 84% 0 mm
12:59 -0.1 °C -2.7 °C 1010 hPa WSW 20.9 km/h 27.4 km/h 83% 0 mm
13:04 -0.1 °C -2.6 °C 1010 hPa WSW 14.5 km/h 27.4 km/h 83% 0 mm
13:09 -0.1 °C -2.5 °C 1010 hPa WSW 16.1 km/h 30.6 km/h 84% 0 mm
13:14 -0.1 °C -2.4 °C 1009.7 hPa WSW 17.7 km/h 30.6 km/h 84% 0 mm
13:19 -0.1 °C -2.4 °C 1009.7 hPa WSW 16.1 km/h 30.6 km/h 84% 0 mm
13:25 -0.1 °C -2.4 °C 1009.7 hPa WSW 16.1 km/h 33.8 km/h 84% 0 mm
13:30 0 °C -2.4 °C 1009.7 hPa WSW 14.5 km/h 33.8 km/h 84% 0 mm
13:34 0.1 °C -2.3 °C 1009.7 hPa WSW 12.9 km/h 25.7 km/h 84% 0 mm
13:39 0.1 °C -2.3 °C 1009.4 hPa SW 12.9 km/h 29 km/h 84% 0 mm
13:44 0.1 °C -2.4 °C 1009.4 hPa SSW 11.3 km/h 33.8 km/h 83% 0 mm
13:49 0.2 °C -2.6 °C 1009.4 hPa SW 16.1 km/h 25.7 km/h 82% 0 mm
13:54 0.2 °C -2.7 °C 1009.7 hPa WSW 24.1 km/h 30.6 km/h 81% 0 mm
13:59 0.2 °C -2.7 °C 1009.4 hPa SSW 12.9 km/h 30.6 km/h 81% 0 mm
14:04 0.3 °C -2.8 °C 1009.4 hPa WSW 20.9 km/h 27.4 km/h 80% 0 mm
14:09 0.3 °C -2.8 °C 1009.4 hPa SW 17.7 km/h 32.2 km/h 80% 0 mm
14:14 0.4 °C -2.8 °C 1009.4 hPa WSW 17.7 km/h 32.2 km/h 79% 0 mm
14:19 0.4 °C -2.9 °C 1009.4 hPa WSW 17.7 km/h 33.8 km/h 78% 0 mm
14:24 0.4 °C -2.9 °C 1009.4 hPa WSW 16.1 km/h 33.8 km/h 78% 0 mm
14:29 0.6 °C -3.2 °C 1009.4 hPa WSW 16.1 km/h 35.4 km/h 76% 0 mm
14:35 0.6 °C -3.1 °C 1009.4 hPa WSW 17.7 km/h 35.4 km/h 76% 0 mm
14:39 0.7 °C -3.1 °C 1009.4 hPa WSW 14.5 km/h 29 km/h 76% 0 mm
14:44 0.7 °C -3.3 °C 1009.7 hPa WSW 16.1 km/h 30.6 km/h 75% 0 mm
14:49 0.8 °C -3.2 °C 1009.7 hPa SSW 16.1 km/h 35.4 km/h 75% 0 mm
14:54 0.8 °C -3 °C 1009.7 hPa SW 14.5 km/h 32.2 km/h 76% 0 mm
14:59 0.8 °C -3.1 °C 1009.7 hPa WSW 25.7 km/h 29 km/h 75% 0 mm
15:04 0.8 °C -2.9 °C 1009.7 hPa WSW 22.5 km/h 35.4 km/h 76% 0 mm
15:09 0.8 °C -2.9 °C 1009.7 hPa WSW 16.1 km/h 27.4 km/h 76% 0 mm
15:14 0.8 °C -3 °C 1009.7 hPa WSW 17.7 km/h 29 km/h 76% 0 mm
15:19 0.8 °C -3.2 °C 1010 hPa WSW 17.7 km/h 37 km/h 75% 0 mm
15:24 0.8 °C -3 °C 1010 hPa WSW 16.1 km/h 37 km/h 76% 0 mm
15:29 0.8 °C -3 °C 1010 hPa WSW 16.1 km/h 30.6 km/h 76% 0 mm
15:34 0.7 °C -3.1 °C 1010 hPa WSW 16.1 km/h 32.2 km/h 76% 0 mm
15:40 0.7 °C -2.8 °C 1010 hPa WSW 17.7 km/h 43.5 km/h 77% 0.25 mm
15:44 0.7 °C -2.9 °C 1010 hPa West 19.3 km/h 32.2 km/h 77% 0.25 mm
15:49 0.6 °C -2.8 °C 1010.4 hPa West 9.7 km/h 29 km/h 78% 0.25 mm
15:54 0.6 °C -2.6 °C 1010.4 hPa West 6.4 km/h 29 km/h 79% 0.25 mm
15:59 0.6 °C -2.7 °C 1010.7 hPa WSW 19.3 km/h 32.2 km/h 79% 0.25 mm
16:04 0.6 °C -2.7 °C 1010.7 hPa WSW 17.7 km/h 27.4 km/h 79% 0.25 mm
16:09 0.6 °C -2.7 °C 1011.1 hPa SW 9.7 km/h 33.8 km/h 79% 0.25 mm
16:14 0.6 °C -2.7 °C 1011.1 hPa West 8 km/h 27.4 km/h 79% 0.25 mm
16:19 0.6 °C -2.7 °C 1011.1 hPa West 12.9 km/h 27.4 km/h 79% 0.25 mm
16:24 0.6 °C -2.7 °C 1011.4 hPa WSW 14.5 km/h 32.2 km/h 79% 0.25 mm
16:29 0.6 °C -2.7 °C 1011.4 hPa WSW 14.5 km/h 32.2 km/h 79% 0.25 mm
16:34 0.6 °C -2.8 °C 1011.4 hPa WSW 12.9 km/h 32.2 km/h 78% 0.25 mm
16:39 0.6 °C -2.8 °C 1011.4 hPa WSW 12.9 km/h 27.4 km/h 78% 0 mm
16:44 0.6 °C -2.7 °C 1011.7 hPa WSW 12.9 km/h 27.4 km/h 79% 0 mm
16:49 0.6 °C -2.8 °C 1011.7 hPa WSW 8 km/h 22.5 km/h 78% 0 mm
16:54 0.6 °C -2.8 °C 1012.1 hPa WNW 22.5 km/h 22.5 km/h 78% 0 mm
16:59 0.6 °C -2.8 °C 1012.1 hPa West 14.5 km/h 27.4 km/h 78% 0 mm
17:04 0.6 °C -3 °C 1012.1 hPa West 6.4 km/h 19.3 km/h 77% 0 mm
17:09 0.5 °C -3.1 °C 1012.1 hPa West 9.7 km/h 17.7 km/h 77% 0 mm
17:14 0.5 °C -3.1 °C 1012.4 hPa WSW 8 km/h 17.7 km/h 77% 0 mm
17:19 0.5 °C -3.2 °C 1012.4 hPa West 9.7 km/h 20.9 km/h 76% 0 mm
17:24 0.6 °C -3.2 °C 1012.4 hPa WSW 11.3 km/h 22.5 km/h 76% 0 mm
17:29 0.4 °C -3.1 °C 1012.4 hPa West 9.7 km/h 22.5 km/h 77% 0 mm
17:34 0.4 °C -3.3 °C 1012.8 hPa West 9.7 km/h 20.9 km/h 76% 0 mm
17:39 0.4 °C -3.5 °C 1012.8 hPa WSW 11.3 km/h 22.5 km/h 75% 0 mm
17:44 0.5 °C -3.4 °C 1012.8 hPa West 11.3 km/h 24.1 km/h 75% 0 mm
17:49 0.5 °C -3.4 °C 1013.1 hPa West 11.3 km/h 24.1 km/h 75% 0 mm
17:54 0.4 °C -3.5 °C 1013.1 hPa WNW 9.7 km/h 20.9 km/h 75% 0 mm
17:59 0.4 °C -3.5 °C 1013.1 hPa SSW 14.5 km/h 24.1 km/h 75% 0 mm
18:04 0.5 °C -3.4 °C 1013.4 hPa West 16.1 km/h 22.5 km/h 75% 0 mm
18:09 0.4 °C -3.3 °C 1013.4 hPa West 12.9 km/h 20.9 km/h 76% 0 mm
18:14 0.4 °C -3.3 °C 1013.8 hPa WSW 11.3 km/h 22.5 km/h 76% 0 mm
18:19 0.4 °C -3.3 °C 1013.8 hPa WSW 8 km/h 22.5 km/h 76% 0 mm
18:24 0.4 °C -3.3 °C 1013.8 hPa West 9.7 km/h 22.5 km/h 76% 0 mm
18:29 0.4 °C -3.3 °C 1014.1 hPa West 11.3 km/h 22.5 km/h 76% 0 mm
18:34 0.4 °C -3.3 °C 1014.1 hPa West 12.9 km/h 30.6 km/h 76% 0 mm
18:39 0.4 °C -3.3 °C 1014.1 hPa West 12.9 km/h 30.6 km/h 76% 0 mm
18:44 0.4 °C -3.3 °C 1014.4 hPa West 11.3 km/h 22.5 km/h 76% 0 mm
18:49 0.4 °C -3.3 °C 1014.4 hPa WSW 11.3 km/h 27.4 km/h 76% 0 mm
18:54 0.4 °C -3.5 °C 1014.4 hPa West 12.9 km/h 38.6 km/h 75% 0 mm
18:59 0.4 °C -3.5 °C 1014.4 hPa West 6.4 km/h 24.1 km/h 75% 0 mm
19:04 0.4 °C -3.7 °C 1014.8 hPa West 11.3 km/h 24.1 km/h 74% 0 mm
19:09 0.4 °C -3.7 °C 1014.8 hPa WSW 11.3 km/h 20.9 km/h 74% 0 mm
19:14 0.5 °C -3.8 °C 1014.8 hPa SW 8 km/h 19.3 km/h 73% 0 mm
19:19 0.6 °C -3.7 °C 1014.8 hPa WSW 14.5 km/h 17.7 km/h 73% 0 mm
19:24 0.6 °C -3.7 °C 1014.8 hPa WSW 8 km/h 20.9 km/h 73% 0 mm
19:29 0.6 °C -3.7 °C 1014.8 hPa West 17.7 km/h 25.7 km/h 73% 0 mm
19:34 0.5 °C -3.6 °C 1014.8 hPa West 11.3 km/h 27.4 km/h 74% 0 mm
19:39 0.5 °C -3.6 °C 1015.1 hPa WSW 14.5 km/h 29 km/h 74% 0 mm
19:44 0.5 °C -3.6 °C 1015.1 hPa WSW 14.5 km/h 29 km/h 74% 0 mm
19:49 0.4 °C -3.5 °C 1015.5 hPa WSW 12.9 km/h 25.7 km/h 75% 0 mm
19:54 0.4 °C -3.5 °C 1015.5 hPa WSW 12.9 km/h 25.7 km/h 75% 0 mm
19:59 0.4 °C -3.6 °C 1015.5 hPa WSW 12.9 km/h 24.1 km/h 75% 0 mm
20:04 0.3 °C -3.4 °C 1015.5 hPa West 6.4 km/h 17.7 km/h 76% 0 mm
20:09 0.3 °C -3.4 °C 1015.5 hPa WSW 9.7 km/h 27.4 km/h 76% 0 mm
20:14 0.3 °C -3.4 °C 1015.5 hPa West 9.7 km/h 19.3 km/h 76% 0 mm
20:19 0.3 °C -3.4 °C 1015.5 hPa West 9.7 km/h 24.1 km/h 76% 0 mm
20:24 0.2 °C -3.5 °C 1015.8 hPa West 8 km/h 30.6 km/h 76% 0 mm
20:29 0.2 °C -3.3 °C 1015.8 hPa West 11.3 km/h 30.6 km/h 77% 0 mm
20:34 0.2 °C -3.4 °C 1016.1 hPa NW 11.3 km/h 20.9 km/h 77% 0 mm
20:39 0.1 °C -3.4 °C 1016.1 hPa West 12.9 km/h 25.7 km/h 77% 0 mm
20:44 0 °C -3.4 °C 1016.1 hPa WNW 12.9 km/h 25.7 km/h 78% 0 mm
20:49 -0.1 °C -3.7 °C 1016.1 hPa WNW 11.3 km/h 25.7 km/h 77% 0 mm
20:54 -0.2 °C -3.9 °C 1016.5 hPa WNW 11.3 km/h 25.7 km/h 76% 0 mm
20:59 -0.3 °C -4.4 °C 1016.5 hPa WNW 11.3 km/h 24.1 km/h 74% 0 mm
21:04 -0.4 °C -4.8 °C 1016.5 hPa NW 14.5 km/h 22.5 km/h 72% 0 mm
21:09 -0.5 °C -5.1 °C 1016.8 hPa WNW 8 km/h 32.2 km/h 71% 0 mm
21:14 -0.6 °C -5.2 °C 1016.8 hPa WNW 14.5 km/h 32.2 km/h 71% 0 mm
21:19 -0.7 °C -5.3 °C 1016.8 hPa WNW 12.9 km/h 30.6 km/h 71% 0 mm
21:24 -0.7 °C -5.7 °C 1016.8 hPa WNW 12.9 km/h 24.1 km/h 69% 0 mm
21:29 -0.8 °C -5.9 °C 1017.2 hPa NW 9.7 km/h 19.3 km/h 68% 0 mm
21:34 -0.8 °C -6 °C 1017.2 hPa WNW 17.7 km/h 27.4 km/h 68% 0 mm
21:39 -0.9 °C -6.1 °C 1017.2 hPa NW 9.7 km/h 22.5 km/h 68% 0 mm
21:44 -0.9 °C -6.1 °C 1017.2 hPa WNW 11.3 km/h 22.5 km/h 68% 0 mm
21:49 -0.9 °C -6.1 °C 1017.2 hPa WNW 12.9 km/h 24.1 km/h 68% 0 mm
21:54 -0.9 °C -6.3 °C 1017.2 hPa West 16.1 km/h 24.1 km/h 67% 0 mm
21:59 -1 °C -6.6 °C 1017.2 hPa West 12.9 km/h 22.5 km/h 66% 0 mm
22:04 -1.1 °C -6.6 °C 1017.2 hPa West 8 km/h 20.9 km/h 66% 0 mm
22:09 -1.1 °C -6.7 °C 1017.5 hPa NW 6.4 km/h 16.1 km/h 66% 0 mm
22:14 -1.2 °C -6.9 °C 1017.5 hPa West 11.3 km/h 17.7 km/h 65% 0 mm
22:19 -1.3 °C -7.2 °C 1017.5 hPa WNW 9.7 km/h 17.7 km/h 64% 0 mm
22:24 -1.3 °C -7.3 °C 1017.5 hPa WNW 9.7 km/h 16.1 km/h 64% 0 mm
22:29 -1.3 °C -7.5 °C 1017.5 hPa WNW 9.7 km/h 24.1 km/h 63% 0 mm
22:34 -1.3 °C -7.3 °C 1017.5 hPa WNW 9.7 km/h 24.1 km/h 64% 0 mm
22:39 -1.5 °C -7.2 °C 1017.5 hPa WNW 8 km/h 16.1 km/h 65% 0 mm
22:44 -1.6 °C -7.1 °C 1017.5 hPa West 14.5 km/h 16.1 km/h 66% 0 mm
22:49 -1.5 °C -7.1 °C 1017.8 hPa WNW 8 km/h 16.1 km/h 66% 0 mm
22:54 -1.6 °C -6.9 °C 1017.5 hPa WNW 8 km/h 16.1 km/h 67% 0 mm
22:59 -1.5 °C -6.8 °C 1017.5 hPa WNW 8 km/h 14.5 km/h 67% 0 mm
23:04 -1.6 °C -6.9 °C 1017.5 hPa West 14.5 km/h 17.7 km/h 67% 0 mm
23:09 -1.7 °C -7 °C 1017.5 hPa West 6.4 km/h 19.3 km/h 67% 0 mm
23:14 -1.7 °C -7.1 °C 1017.8 hPa West 6.4 km/h 14.5 km/h 67% 0 mm
23:19 -1.7 °C -7.1 °C 1017.8 hPa West 9.7 km/h 19.3 km/h 67% 0 mm
23:24 -1.7 °C -7.1 °C 1017.8 hPa West 8 km/h 19.3 km/h 67% 0 mm
23:29 -1.7 °C -7.1 °C 1017.8 hPa West 8 km/h 17.7 km/h 67% 0 mm
23:34 -1.8 °C -7.1 °C 1018.2 hPa West 9.7 km/h 17.7 km/h 67% 0 mm
23:39 -1.8 °C -6.9 °C 1018.2 hPa West 8 km/h 16.1 km/h 68% 0 mm
23:44 -1.9 °C -7.1 °C 1017.8 hPa West 8 km/h 16.1 km/h 68% 0 mm
23:49 -1.9 °C -7.1 °C 1018.2 hPa West 12.9 km/h 16.1 km/h 68% 0 mm
23:54 -2 °C -7.1 °C 1018.2 hPa West 8 km/h 17.7 km/h 68% 0 mm
23:59 -2 °C -6.9 °C 1018.2 hPa WNW 11.3 km/h 14.5 km/h 69% 0 mm
Buffalo, New York, USA
Compliments of Weather Underground - 2.5 mb